Content
SEND FEEDBACK

Daily
Averages
Monthly
Summary
Mexico

PUEBLA - LOMAS DEL MÁRMOL, PUEBLA


Home > North America > Mexico > Puebla
Elevation: 6916 feet     Latitude: 18 58N     Longitude: 098 10W

WEATHER
 
SELECT A DAY
Number of Records: 120,900;   Date Range: 1/1/95 - 7/28/14
 
SHARE

PRINT THIS DATA

[ ← Previous Day ]
WEATHER ALMANAC - FEBRUARY 24, 2013
[ Next Day → ]
[ °C ]   °F
Weather ElementAverageHighLow
Temperature62.5 °F76 °F (2:50 pm)42.8 °F (5:45 am)
Dewpoint34.4 °F44.6 °F (9:42 am)24.8 °F (2:45 pm)
Humidity35.8 %70 % (6:47 am)13 % (2:50 pm)
Barometer30.05 in30.27 in (10:41 am)29.59 in (8:58 pm)
Wind Speed9.2 mph28.8 mph (3:44 pm)
Weather ElementAverage
Visibility7.8 mi
Wind DirectionSSE (140.9 °)

Weather ElementTotal
Precipitation---
Heating Degree Days5.6 (Base 65)
Growing Degree Days9.4 (Base 50)
Averaged from 25 records on February 24, 2013
WEATHER CONDITIONS BREAKOUT
WIND DIRECTION BREAKOUT
WEATHER BY HOUR - FEBRUARY 24, 2013
[ °C ]   °F
Local TimeTemperatureDewpointHumidityBarometerVisibilityWind DirectionWind SpeedGust SpeedPrecipitationEventsConditions
2:50 AM55.0 °F35.0 °F36 %29.70 in3.0 miNE (40°)2.2 mphScattered Clouds
5:45 AM42.8 °F32.0 °F66 %30.19 in10.0 miCalmClear
5:50 AM52.0 °F42.0 °F60 %29.75 in3.0 miCalm
6:47 AM42.8 °F33.8 °F70 %30.21 in6.0 miWest (260°)5.8 mphClear
7:51 AM46.4 °F35.6 °F66 %30.23 in10.0 miCalmClear
8:41 AM51.8 °F37.4 °F58 %30.26 in10.0 miCalmClear
9:42 AM60.8 °F44.6 °F55 %30.26 in10.0 miSE (140°)4.6 mphClear
10:41 AM64.4 °F44.6 °F49 %30.27 in10.0 miSSW (200°)6.9 mphClear
11:44 AM68.0 °F42.8 °F40 %30.24 in10.0 miSouth (180°)17.3 mphScattered Clouds
11:50 AM72.0 °F42.0 °F23 %29.84 in9.0 miSSE (150°)6.7 mphHaze
12:49 PM71.6 °F39.2 °F31 %30.20 in10.0 miSE (140°)13.8 mphScattered Clouds
1:42 PM75.2 °F26.6 °F17 %30.15 in6.0 miSSE (150°)13.8 mphScattered Clouds
2:45 PM75.2 °F24.8 °F15 %30.11 in6.0 miSouth (180°)21.9 mphWidespread Dust
2:50 PM76.0 °F35.0 °F13 %29.68 in6.0 miSSE (150°)17.9 mphHaze
3:44 PM73.4 °F28.4 °F19 %30.10 in6.0 miSouth (190°)28.8 mphMostly Cloudy
4:42 PM71.6 °F32.0 °F23 %30.12 in8.0 miSouth (190°)21.9 mphMostly Cloudy
5:40 PM75.0 °F34.0 °F13 %29.60 in6.0 miSSE (150°)11.2 mphHaze
5:44 PM69.8 °F33.8 °F27 %30.12 in10.0 miSouth (180°)23.0 mphMostly Cloudy
6:44 PM64.4 °F33.8 °F32 %30.14 in10.0 miSouth (180°)13.8 mphMostly Cloudy
7:46 PM60.8 °F30.2 °F31 %30.16 in10.0 miSouth (180°)9.2 mphScattered Clouds
8:41 PM57.2 °F30.2 °F36 %30.19 in10.0 miWSW (250°)5.8 mphScattered Clouds
8:58 PM66.0 °F32.0 °F17 %29.59 in3.0 miESE (120°)2.2 mphScattered Clouds
9:47 PM57.2 °F26.6 °F31 %30.20 in10.0 miSSW (210°)3.5 mphScattered Clouds
10:45 PM53.6 °F32.0 °F44 %30.21 in10.0 miCalmScattered Clouds
11:58 PM60.0 °F32.0 °F23 %29.68 in3.0 miCalm
Hourly data recorded from MMPB, located miles away from Puebla - Lomas del Mármol, Puebla







STORIES FROM OUR PARTNERS